星链-6169 (STARLINK-6169 )

导读 | 星芒AI

STARLINK-6169 是 SpaceX Starlink 项目中的一颗低轨道通信卫星,属于第六批发射的星链卫星群。该卫星于2022年发射,部署在约550公里高度的近地轨道,旨在为全球用户提供高速互联网服务。作为星链网络的一部分,它通过Ku和Ka波段与地面基站通信,支持宽带数据传输。该卫星采用先进推进系统,具备自主变轨和避碰能力,有助于提升星座运行的安全性和效率。

基本信息
目录编号:
56889
目录名称:
STARLINK-6169
国际标识:
2023-083P
轨道中心:
EARTH
卫星名称:
星链-6169
卫星全名:
星链-6169 (STARLINK-6169 )
卫星状态:
在轨 (已飞行876 天)
发射日期:
2023-06-12 UTC
国别 :
美国 (US)
星等 :
--
轨道信息
数据来源 国际轨道数据
星历时间: 2025-11-04T00:02:50+0800
8小时前
查看轨道信息
半长轴: 6937.21km
偏心率: 0.0001438
轨道倾角: 43.006°
近地点辐角 274.246°
升交点赤经 46.530°
平近点角 85.822°
近地点: 558.077km
远地点: 560.073km
周期: 95.838分钟
每日圈数: 15.025383
详细信息
固有亮度:
5
最大亮度:
2.4
卫星平台:
Starlink v1.5
覆盖范围:
全球
运营商:
太空探索技术公司
运营商所在国:
美国
制造商(研发单位):
太空探索技术公司
制造商所在国:
美国
使用方式:
暂无
卫星简介
星链(Starlink)计划是由太空探索技术公司(SpaceX)提出的一个巨型低轨卫星互联网星座项目,计划在2019年至2024年间在太空搭建由约1.2万颗卫星组成的“星链”网络,其中1584颗将部署在地球上空550千米处的近地轨道,并从2020年开始工作。该卫星仍在工作。
2D轨道图
3D轨道图
轨道高度分析图
轨道倾角分析图
轨道综合分析图
查看轨道综合分析图